COSMOS 1447

Satellite information

Favourite Embed

Satellite Type and Status

PAYLOADIN ORBIT

Key statistics

Satellite COSMOS 1447 at a glance.

Uptime

15605

Days in orbit

Revolutions

≈ 13.8

Per day

Orbit

LEO

Low Earth Orbit

Inclination

82.9

Latest

Satellite identification and parameters

Extended collection of information and parameters for COSMOS 1447.

Object identification

Identified? True

Debris? False

Object name: COSMOS 1447

International designator: 1983-021A

Object number (NORAD): 13916

Object ID (CCSDS): 13916

Country: COMMONWEALTH OF INDEPENDENT STATES (CIS)

Current information (Y/N): Y

RCS size: LARGE

Orbital parameters

Period: 104.702 minutes

Inclination: 82.9443 deg

SMA: 7358.625 km

Apoapsis: 1008.088 km

Periapsis: 952.891 km

RAAN: 137.9935 deg

Eccentricy: 0.00375049

Argument of periapsis: 354.9338 deg

Mean anomaly: 178.1384 deg

Mean motion: 13.75332725 rev/day

Mean motion (dot): 0.00000121 rev/day2

B* drag term: 0.00010983123 1/REarth

Two-line elements (TLE)

Creation date: Dec. 12, 2025, 10:14 a.m.

Reference frame: TEME

Reference center: EARTH

Epoch: Dec. 12, 2025, 4:47 a.m. UTC

TLE line 0: 0 COSMOS 1447

TLE line 1: 1 13916U 83021A 25346.19942890 .00000121 00000-0 10983-3 0 9994

TLE line 2: 2 13916 82.9443 137.9935 0037505 354.9338 178.1384 13.75332725143372

Live tracking on map

Real-time ground track for satellite COSMOS 1447.

In-orbit conjunctions

A list of the most updated potential collisions computed for object COSMOS 1447.

Target Orbit TCA Probability of collision Miss distance Type
FENGYUN 1C DEB SSO 2024-10-17 02:10:39 0.0002003344 458.0 (m) DEBRIS

Associated space launch

Civilian navigation satellite equivalent to the purely military Parus

COSMOS 1447 was lifted into orbit during the mission ‘Kosmos-3M | Nadezhda 2’, on board a Kosmos-3M space rocket.

The launch took place on March 24, 1983, 8:55 p.m. from 132/2.

For more information about the launch, click the button.

Launch to space Kosmos-3M | Nadezhda 2
Kosmos-3M | Nadezhda 2

Agency: N/A

Status: Launch Successful

Launch date: March 24, 1983, 8:55 p.m. UTC

Rocket: Kosmos-3M

Launch pad: 132/2

Location: Plesetsk Cosmodrome, Russian Federation

...

Latest news about this satellite

There are no fresh news available about this satellite. Check back as we update our databases every day.


Newsletter sign-up

Weekly statistics, charts and insights to help you stay on top of the space industry.